Weather History for KCQC - December, 2013

Change the Weather History Date:

Saturday, December 7, 2013

  Actual Average (KSAF) Record (KSAF)
Temperature  
Mean Temperature 21 °F -  
Max Temperature 27 °F 54 °F 57 °F (2007)
Min Temperature 15 °F 19 °F 5 °F (2005)
Degree Days  
Heating Degree Days 44    
Moisture  
Dew Point 17 °F    
Average Humidity 89    
Maximum Humidity 92    
Minimum Humidity 84    
Precipitation  
Precipitation 0.00 in - - ()
Sea Level Pressure  
Sea Level Pressure 29.94 in    
Wind  
Wind Speed 14 mph (SSE)    
Max Wind Speed 30 mph    
Max Gust Speed 38 mph    
Visibility 2 miles    
Events Fog    
Averages and records for this station are not official NWS values.
T = Trace of Precipitation, MM = Missing Value Source: NWS Daily Summary

Daily Weather History Graph

Daily Weather History Graph

Search for Another Location

Airport or City:

Trip Planner

Search our weather history database for the weather conditions in past years. The results will help you decide how hot, cold, wet, or windy it might be!

Date:

Astronomy

Dec. 07, 2013 Rise Set
Actual Time 6:57 AM MST 4:50 PM MST
Civil Twilight 6:29 AM MST 5:18 PM MST
Nautical Twilight 5:58 AM MST 5:50 PM MST
Astronomical Twilight 5:27 AM MST 6:21 PM MST
Moon 10:52 AM MST (12/7) 10:26 PM MST (12/7)
Length of Visible Light 10h 49m
Length of Day
9h 53m
Waxing Crescent, 30% of the Moon is Illuminated
Dec 7
Waxing Crescent
Dec 9
First Quarter
Dec 17
Full
Dec 25
Last Quarter
Jan 1
New

Hourly Weather History & Observations

Time (MST) Temp. Windchill Dew Point Humidity Pressure Visibility Wind Dir Wind Speed Gust Speed Precip Events Conditions
4:53 AM 15.1 °F 0.5 °F 12.9 °F 91% 30.19 in 0.5 mi SE 13.8 mph - N/A Fog Light Freezing Fog
7:53 AM 16.0 °F 1.7 °F 12.9 °F 88% 30.22 in 0.2 mi SE 13.8 mph - N/A Fog Light Freezing Fog
8:53 AM 16.0 °F 1.1 °F 14.0 °F 92% 30.19 in 0.2 mi SE 15.0 mph - N/A Fog Light Freezing Fog
9:53 AM 17.1 °F 2.5 °F 15.1 °F 92% 30.15 in 0.2 mi SE 15.0 mph - N/A Fog Light Freezing Fog
10:53 AM 16.0 °F 2.9 °F 12.9 °F 88% 30.14 in 0.2 mi ESE 11.5 mph - N/A Fog Light Freezing Fog
11:53 AM 16.0 °F 3.6 °F 14.0 °F 92% 30.11 in 0.2 mi ESE 10.4 mph - N/A Fog Light Freezing Fog
12:53 PM 16.0 °F 3.6 °F 12.9 °F 88% 30.07 in 0.2 mi SE 10.4 mph - N/A Fog Light Freezing Fog
1:36 PM 16.0 °F 4.4 °F 12.9 °F 88% 29.87 in 0.5 mi SE 9.2 mph - N/A Fog Light Freezing Fog
1:46 PM 16.0 °F 3.6 °F 12.9 °F 88% 29.87 in 0.2 mi ESE 10.4 mph - N/A Fog Light Freezing Fog
1:53 PM 16.0 °F 2.9 °F 12.9 °F 88% 30.03 in 0.2 mi ESE 11.5 mph - N/A Fog Light Freezing Fog
2:53 PM 16.0 °F 4.4 °F 12.9 °F 88% 30.00 in 0.2 mi ESE 9.2 mph - N/A Fog Light Freezing Fog
3:53 PM 16.0 °F 6.3 °F 12.9 °F 88% 29.98 in 0.2 mi ESE 6.9 mph - N/A Fog Light Freezing Fog
4:53 PM 17.1 °F 6.6 °F 14.0 °F 88% 29.97 in 0.2 mi ESE 8.1 mph - N/A Fog Light Freezing Fog
5:11 PM 16.0 °F 2.9 °F 12.0 °F 84% 29.80 in 0.5 mi ESE 11.5 mph - N/A Fog Light Freezing Fog
5:29 PM 16.0 °F 2.9 °F 12.9 °F 88% 29.79 in 0.2 mi East 11.5 mph - N/A Fog Light Freezing Fog
5:53 PM 17.1 °F 8.7 °F 14.0 °F 88% 29.95 in 0.2 mi SE 5.8 mph - N/A Fog Light Freezing Fog
6:05 PM 17.1 °F 5.8 °F 14.0 °F 88% 29.80 in 0.5 mi SSE 9.2 mph - N/A Fog Light Freezing Fog
6:39 PM 19.0 °F 8.2 °F 16.0 °F 88% 29.79 in 1.0 mi South 9.2 mph - N/A   Mist
6:53 PM 21.0 °F 9.3 °F 18.0 °F 88% 29.91 in 1.2 mi South 11.5 mph - N/A   Overcast
7:42 PM 26.1 °F 10.1 °F 24.1 °F 92% 29.78 in 1.8 mi SSW 27.6 mph 36.8 mph N/A   Mist
7:46 PM 27.0 °F 11.0 °F 24.1 °F 89% 29.78 in 3.0 mi SSW 28.8 mph 36.8 mph N/A   Mist
7:53 PM 27.0 °F 10.8 °F 24.1 °F 89% 29.88 in 5.0 mi SSW 29.9 mph 38.0 mph N/A   Mist
8:32 PM 27.0 °F 10.8 °F 24.1 °F 89% 29.78 in 5.0 mi SW 29.9 mph 36.8 mph N/A   Overcast
8:53 PM 26.1 °F 10.1 °F 24.1 °F 92% 29.88 in 5.0 mi SW 27.6 mph 33.4 mph N/A   Overcast
9:53 PM 25.0 °F 8.9 °F 21.9 °F 88% 29.88 in 5.0 mi SW 26.5 mph - N/A   Overcast
10:53 PM 25.0 °F 12.2 °F 21.9 °F 88% 29.90 in 2.5 mi West 16.1 mph - N/A   Overcast
11:02 PM 24.1 °F 11.0 °F 21.9 °F 91% 29.79 in 1.0 mi West 16.1 mph - N/A   Mist
11:20 PM 25.0 °F 9.9 °F 21.9 °F 88% 29.78 in 3.0 mi West 23.0 mph 26.5 mph N/A   Overcast
11:53 PM 23.0 °F 8.7 °F 21.0 °F 92% 29.89 in 4.0 mi WSW 18.4 mph - N/A   Overcast